ATL8189 OEJN-EHAM

Flight info

Callsign ATL8189
Flight time N/A
Altitude 30000
Route BOMOX M686 OTEMO T55 NABED/N0483F320 T55 KUNKI L321 REXUM M872 SOBAX DCT NOGLI L551 ANTAR DCT RIGRO DCT EVIVI DCT OKANA DCT RAVAK DCT BGD DCT BABIT DCT SOGMO DCT SASAL DCT BARUG DCT DEXIT DCT RUDNO DCT MAPOX DCT BIGGE DCT AMSAN T281 NORKU
Aircraft B752/M-SDE3FGHIM3RWXY/LB1

Departure

Time N/A
Airport King Abdulaziz International Airport (OEJN)

Arrival

Time 2026-05-04 15:25
Airport Amsterdam Airport Schiphol (EHAM)
Time Latitude Longitude Altitude Speed Heading
2026-05-04 14:28 49.62397 11.97859 33974 ft 461 kts 304°
2026-05-04 14:28 49.64372 11.93955 33978 ft 462 kts 305°
2026-05-04 14:28 49.68357 11.86061 33979 ft 461 kts 304°
2026-05-04 14:29 49.76230 11.70396 33963 ft 460 kts 305°
2026-05-04 14:30 49.80175 11.62510 33955 ft 462 kts 305°
2026-05-04 14:31 49.86076 11.50672 33947 ft 461 kts 304°
2026-05-04 14:32 49.93943 11.34807 33942 ft 461 kts 304°
2026-05-04 14:32 49.97745 11.27106 33949 ft 461 kts 304°
2026-05-04 14:33 50.01662 11.19146 33948 ft 462 kts 304°
2026-05-04 14:33 50.05567 11.11191 33944 ft 461 kts 303°
2026-05-04 14:34 50.09456 11.03241 33944 ft 461 kts 303°
2026-05-04 14:34 50.13279 10.95402 33941 ft 460 kts 303°
2026-05-04 14:35 50.17135 10.87471 33943 ft 460 kts 303°
2026-05-04 14:35 50.21009 10.79482 33940 ft 461 kts 303°
2026-05-04 14:36 50.24889 10.71456 33936 ft 461 kts 303°
2026-05-04 14:36 50.28749 10.63444 33936 ft 461 kts 303°
2026-05-04 14:37 50.32607 10.55415 33932 ft 461 kts 303°
2026-05-04 14:37 50.36459 10.47373 33940 ft 461 kts 303°
2026-05-04 14:38 50.40296 10.39341 33947 ft 453 kts 303°
2026-05-04 14:38 50.44017 10.31519 33953 ft 459 kts 302°
2026-05-04 14:39 50.47821 10.23503 33949 ft 460 kts 302°
2026-05-04 14:39 50.51643 10.15429 33951 ft 459 kts 302°
2026-05-04 14:40 50.57377 10.03263 33955 ft 460 kts 302°
2026-05-04 14:40 50.61198 9.95124 33950 ft 460 kts 302°
2026-05-04 14:41 50.64980 9.87044 33944 ft 459 kts 302°
2026-05-04 14:42 50.72575 9.70743 33944 ft 460 kts 302°
2026-05-04 14:42 50.76376 9.62547 33938 ft 459 kts 302°
2026-05-04 14:43 50.80144 9.54395 33940 ft 458 kts 302°
2026-05-04 14:43 50.83908 9.46226 33943 ft 459 kts 302°
2026-05-04 14:44 50.87646 9.38089 33941 ft 459 kts 302°
2026-05-04 14:44 50.91332 9.30039 33947 ft 460 kts 301°
2026-05-04 14:45 50.95076 9.21840 33945 ft 460 kts 301°
2026-05-04 14:45 50.98667 9.13950 33947 ft 460 kts 301°
2026-05-04 14:46 51.02423 9.05672 33950 ft 460 kts 301°
2026-05-04 14:46 51.06169 8.97390 33951 ft 458 kts 300°
2026-05-04 14:47 51.09892 8.89131 33952 ft 458 kts 300°
2026-05-04 14:47 51.13531 8.81067 33943 ft 459 kts 302°
2026-05-04 14:48 51.17570 8.73083 33943 ft 461 kts 303°
2026-05-04 14:48 51.21605 8.65104 33941 ft 461 kts 303°
2026-05-04 14:49 51.25590 8.57194 33945 ft 461 kts 303°
2026-05-04 14:49 51.29639 8.49126 33947 ft 462 kts 303°
2026-05-04 14:50 51.33838 8.41355 33953 ft 466 kts 310°
2026-05-04 14:50 51.38479 8.34075 33952 ft 467 kts 309°
2026-05-04 14:51 51.42921 8.27093 33954 ft 465 kts 309°
2026-05-04 14:51 51.47564 8.19784 33950 ft 466 kts 309°
2026-05-04 14:52 51.52179 8.12501 33950 ft 466 kts 309°
2026-05-04 14:52 51.56799 8.05192 33947 ft 465 kts 310°
2026-05-04 14:53 51.61402 7.97888 33950 ft 466 kts 309°
2026-05-04 14:53 51.66053 7.90484 33947 ft 466 kts 309°
2026-05-04 14:54 51.70627 7.83183 33942 ft 468 kts 309°
2026-05-04 14:54 51.75250 7.75782 33943 ft 466 kts 309°
2026-05-04 14:55 51.79881 7.68344 33934 ft 467 kts 309°
2026-05-04 14:55 51.84483 7.60931 33937 ft 467 kts 309°
2026-05-04 14:56 51.89076 7.53507 33932 ft 467 kts 309°
2026-05-04 14:56 51.93693 7.46022 33921 ft 467 kts 309°
2026-05-04 14:57 51.98316 7.38507 33921 ft 468 kts 309°
2026-05-04 14:57 52.02885 7.31056 33914 ft 465 kts 308°
2026-05-04 14:58 52.07328 7.23795 33923 ft 449 kts 308°
2026-05-04 14:58 52.11745 7.16534 33604 ft 461 kts 308°
2026-05-04 14:59 52.14014 7.12799 32923 ft 466 kts 308°
2026-05-04 14:59 52.16157 7.08911 32150 ft 460 kts 302°
2026-05-04 14:59 52.20084 7.00733 30950 ft 458 kts 302°
2026-05-04 15:00 52.22078 6.96617 30373 ft 466 kts 304°
2026-05-04 15:00 52.24149 6.92483 29754 ft 472 kts 304°
2026-05-04 15:00 52.26244 6.88299 29153 ft 470 kts 304°
2026-05-04 15:01 52.30308 6.80172 28798 ft 454 kts 304°
2026-05-04 15:01 52.32304 6.76152 28303 ft 469 kts 304°
2026-05-04 15:01 52.34367 6.72007 27746 ft 464 kts 304°
2026-05-04 15:01 52.36375 6.67966 27139 ft 452 kts 304°
2026-05-04 15:02 52.38350 6.63988 26570 ft 443 kts 304°
2026-05-04 15:02 52.40273 6.60102 26037 ft 439 kts 305°
2026-05-04 15:02 52.42213 6.56173 25505 ft 437 kts 305°
2026-05-04 15:02 52.44066 6.52287 24983 ft 431 kts 300°
2026-05-04 15:03 52.45530 6.48066 24465 ft 422 kts 291°
2026-05-04 15:03 52.46496 6.43510 23939 ft 416 kts 281°
2026-05-04 15:03 52.46974 6.38924 23395 ft 408 kts 276°
2026-05-04 15:03 52.47572 6.34369 22931 ft 406 kts 285°
2026-05-04 15:04 52.48659 6.30276 22929 ft 390 kts 296°
2026-05-04 15:04 52.50192 6.26697 22813 ft 376 kts 308°
2026-05-04 15:04 52.52023 6.23734 22424 ft 370 kts 313°
2026-05-04 15:04 52.53939 6.20804 22033 ft 376 kts 313°
2026-05-04 15:05 52.55844 6.17856 21665 ft 380 kts 313°
2026-05-04 15:05 52.57770 6.14864 21276 ft 376 kts 313°
2026-05-04 15:05 52.59672 6.11893 20914 ft 372 kts 313°
2026-05-04 15:05 52.61554 6.08953 20120 ft 371 kts 313°
2026-05-04 15:06 52.63377 6.06077 19123 ft 366 kts 313°
2026-05-04 15:06 52.65183 6.03178 18111 ft 360 kts 313°
2026-05-04 15:06 52.66887 6.00223 17029 ft 354 kts 304°
2026-05-04 15:07 52.68581 5.92922 14912 ft 339 kts 271°
2026-05-04 15:07 52.68367 5.89129 13888 ft 333 kts 256°
2026-05-04 15:07 52.67540 5.85588 12853 ft 329 kts 239°
2026-05-04 15:07 52.66133 5.82695 11850 ft 324 kts 225°
2026-05-04 15:08 52.64587 5.80054 10848 ft 319 kts 230°
2026-05-04 15:08 52.63187 5.77271 10063 ft 307 kts 232°
2026-05-04 15:08 52.61903 5.74573 9624 ft 288 kts 233°
2026-05-04 15:08 52.60731 5.72007 9058 ft 277 kts 234°
2026-05-04 15:09 52.59586 5.69430 8263 ft 276 kts 234°
2026-05-04 15:09 52.58477 5.66895 7495 ft 274 kts 234°
2026-05-04 15:09 52.57382 5.64370 6955 ft 261 kts 234°
2026-05-04 15:10 52.55248 5.59427 6978 ft 278 kts 235°
2026-05-04 15:10 52.54120 5.56809 6950 ft 272 kts 235°
2026-05-04 15:10 52.51940 5.51747 6966 ft 273 kts 235°
2026-05-04 15:11 52.50843 5.49203 6955 ft 273 kts 235°
2026-05-04 15:11 52.49741 5.46648 6960 ft 272 kts 235°
2026-05-04 15:11 52.48643 5.44104 6960 ft 272 kts 235°
2026-05-04 15:11 52.47545 5.41563 6963 ft 271 kts 235°
2026-05-04 15:12 52.46431 5.38988 6968 ft 273 kts 235°
2026-05-04 15:12 52.45332 5.36451 6948 ft 270 kts 235°
2026-05-04 15:12 52.44240 5.33932 6963 ft 272 kts 234°
2026-05-04 15:12 52.43160 5.31391 6955 ft 273 kts 236°
2026-05-04 15:13 52.42136 5.28772 6650 ft 275 kts 238°
2026-05-04 15:13 52.41091 5.26079 6143 ft 278 kts 237°
2026-05-04 15:13 52.40041 5.23426 5901 ft 273 kts 237°
2026-05-04 15:13 52.38995 5.20815 5491 ft 272 kts 237°
2026-05-04 15:14 52.37973 5.18252 5170 ft 269 kts 237°
2026-05-04 15:14 52.36934 5.15665 4741 ft 270 kts 237°
2026-05-04 15:14 52.35898 5.13086 4346 ft 269 kts 237°
2026-05-04 15:14 52.34860 5.10507 3936 ft 270 kts 237°
2026-05-04 15:15 52.33841 5.07985 3596 ft 267 kts 237°
2026-05-04 15:15 52.32789 5.05402 3167 ft 268 kts 238°
2026-05-04 15:15 52.31754 5.02864 2802 ft 267 kts 237°
2026-05-04 15:16 52.29674 4.97765 2039 ft 266 kts 237°
2026-05-04 15:16 52.28671 4.95309 1944 ft 253 kts 237°
2026-05-04 15:16 52.26644 4.90329 1962 ft 267 kts 237°
2026-05-04 15:17 52.25621 4.87809 1959 ft 265 kts 238°
2026-05-04 15:17 52.23565 4.82768 1963 ft 267 kts 237°
2026-05-04 15:17 52.22520 4.80236 1961 ft 267 kts 237°
2026-05-04 15:18 52.21472 4.77699 1965 ft 267 kts 237°
2026-05-04 15:18 52.20442 4.75195 1965 ft 267 kts 237°
2026-05-04 15:18 52.19412 4.72691 1962 ft 260 kts 237°
2026-05-04 15:19 52.17490 4.68060 1945 ft 230 kts 238°
2026-05-04 15:19 52.16620 4.65968 1943 ft 218 kts 237°
2026-05-04 15:19 52.14901 4.61693 1955 ft 226 kts 249°
2026-05-04 15:20 52.14679 4.59232 1999 ft 220 kts 285°
2026-05-04 15:20 52.15360 4.57046 2000 ft 217 kts 320°
2026-05-04 15:20 52.16606 4.55636 1977 ft 215 kts 332°
2026-05-04 15:20 52.17929 4.54541 1955 ft 210 kts 347°
2026-05-04 15:21 52.19362 4.54598 2006 ft 209 kts 22°
2026-05-04 15:21 52.20673 4.55757 1977 ft 212 kts 32°
2026-05-04 15:21 52.22977 4.58518 1963 ft 197 kts 54°
2026-05-04 15:22 52.23677 4.60323 1885 ft 183 kts 56°
2026-05-04 15:22 52.24353 4.62011 1664 ft 167 kts 56°
2026-05-04 15:22 52.25505 4.64949 1251 ft 146 kts 56°
2026-05-04 15:23 52.26049 4.66339 1058 ft 145 kts 55°
2026-05-04 15:23 52.26606 4.67723 918 ft 144 kts 55°
2026-05-04 15:23 52.27130 4.69119 761 ft 147 kts 56°
2026-05-04 15:23 52.27673 4.70513 530 ft 144 kts 54°
2026-05-04 15:24 52.28734 4.73269 91 ft 142 kts 56°
2026-05-04 15:24 52.29637 4.75612 -2 ft 78 kts 59°
2026-05-04 15:25 52.29923 4.76356 -2 ft 74 kts 58°
2026-05-04 15:25 52.30179 4.77029 -2 ft 66 kts 59°
2026-05-04 15:25 52.30318 4.77482 -2 ft 23 kts 109°
2026-05-04 15:26 52.30119 4.77401 -2 ft 15 kts 236°
2026-05-04 15:26 52.30074 4.77282 -2 ft 7 kts 239°
2026-05-04 15:26 52.30016 4.77135 -2 ft 7 kts 236°
2026-05-04 15:27 52.29987 4.77064 -2 ft 7 kts 237°
2026-05-04 15:27 52.29866 4.76822 -2 ft 19 kts 224°
2026-05-04 15:28 52.29718 4.76459 -2 ft 18 kts 241°
2026-05-04 15:28 52.29669 4.76328 -2 ft 3 kts 204°
2026-05-04 15:28 52.29608 4.76384 -2 ft 6 kts 146°
2026-05-04 15:29 52.29584 4.76410 -2 ft 0 kts 146°